Time,TemperatureF,DewpointF,PressureIn,WindDirection,WindDirectionDegrees,WindSpeedMPH,WindSpeedGustMPH,Humidity,HourlyPrecipIn,Conditions,Clouds,dailyrainin,SoftwareType,DateUTC
2013-07-05 00:01:00,74.0,72.0,30.22,SE,140,2.0,3.0,95,0.00,,,0.03,,2013-07-05 04:01:00,
2013-07-05 00:12:00,73.0,72.0,30.22,East,95,2.0,2.0,97,0.00,,,0.03,,2013-07-05 04:12:00,
2013-07-05 00:22:00,73.0,72.0,30.22,East,95,2.0,2.0,97,0.00,,,0.03,,2013-07-05 04:22:00,
2013-07-05 00:33:00,73.0,72.0,30.22,East,95,2.0,2.0,97,0.00,,,0.03,,2013-07-05 04:33:00,
2013-07-05 00:43:00,73.0,72.0,30.22,East,95,2.0,2.0,97,0.00,,,0.03,,2013-07-05 04:43:00,
2013-07-05 00:53:00,74.0,74.0,30.25,North,0,0.0,1.0,99,0.00,,,0.03,,2013-07-05 04:53:00,
2013-07-05 01:01:00,73.0,73.0,30.25,East,100,0.0,0.0,100,0.00,,,0.03,,2013-07-05 05:01:00,
2013-07-05 01:12:00,73.0,73.0,30.25,East,100,0.0,0.0,100,0.00,,,0.03,,2013-07-05 05:12:00,
2013-07-05 01:22:00,73.0,73.0,30.25,East,100,0.0,0.0,100,0.00,,,0.03,,2013-07-05 05:22:00,
2013-07-05 01:33:00,73.0,73.0,30.25,West,280,1.0,2.0,100,0.00,,,0.03,,2013-07-05 05:33:00,
2013-07-05 01:43:00,73.0,73.0,30.25,West,280,1.0,2.0,100,0.00,,,0.03,,2013-07-05 05:43:00,
2013-07-05 01:52:00,73.0,73.0,30.25,South,185,1.0,1.0,100,0.00,,,0.03,,2013-07-05 05:52:00,
2013-07-05 02:02:00,74.0,74.0,30.25,NE,45,0.0,0.0,100,0.00,,,0.03,,2013-07-05 06:02:00,
2013-07-05 02:13:00,74.0,74.0,30.25,NE,45,0.0,0.0,100,0.00,,,0.03,,2013-07-05 06:13:00,
2013-07-05 02:23:00,74.0,73.0,30.25,SE,135,3.0,5.0,98,0.00,,,0.03,,2013-07-05 06:23:00,
2013-07-05 02:34:00,73.0,72.0,30.25,ESE,115,3.0,3.0,97,0.00,,,0.03,,2013-07-05 06:34:00,
2013-07-05 02:44:00,73.0,72.0,30.25,ESE,115,3.0,3.0,97,0.00,,,0.03,,2013-07-05 06:44:00,
2013-07-05 02:53:00,73.0,72.0,30.25,East,95,1.0,2.0,98,0.00,,,0.03,,2013-07-05 06:53:00,
2013-07-05 03:02:00,73.0,72.0,30.25,SE,135,1.0,0.0,97,0.00,,,0.03,,2013-07-05 07:02:00,
2013-07-05 03:12:00,73.0,72.0,30.25,SE,135,1.0,0.0,97,0.00,,,0.03,,2013-07-05 07:12:00,
2013-07-05 03:23:00,73.0,73.0,30.25,ESE,110,0.0,2.0,99,0.00,,,0.03,,2013-07-05 07:23:00,
2013-07-05 03:34:00,73.0,73.0,30.25,ESE,110,0.0,0.0,99,0.00,,,0.03,,2013-07-05 07:34:00,
2013-07-05 03:43:00,73.0,73.0,30.25,ESE,110,0.0,0.0,99,0.00,,,0.03,,2013-07-05 07:43:00,
2013-07-05 03:53:00,72.0,72.0,30.25,SE,130,0.0,0.0,100,0.00,,,0.03,,2013-07-05 07:53:00,
2013-07-05 04:03:00,72.0,72.0,30.22,SE,125,0.0,0.0,100,0.00,,,0.03,,2013-07-05 08:03:00,
2013-07-05 04:12:00,72.0,72.0,30.22,SE,125,0.0,0.0,100,0.00,,,0.03,,2013-07-05 08:12:00,
2013-07-05 04:23:00,72.0,72.0,30.22,ESE,115,0.0,0.0,100,0.00,,,0.03,,2013-07-05 08:23:00,
2013-07-05 04:33:00,72.0,72.0,30.22,ESE,115,0.0,0.0,100,0.00,,,0.03,,2013-07-05 08:33:00,
2013-07-05 04:44:00,72.0,72.0,30.22,ESE,115,0.0,0.0,100,0.00,,,0.03,,2013-07-05 08:44:00,
2013-07-05 04:57:00,71.0,71.0,30.22,ESE,115,0.0,0.0,100,0.00,,,0.03,,2013-07-05 08:57:00,
2013-07-05 05:08:00,71.0,71.0,30.22,ESE,115,0.0,0.0,100,0.00,,,0.03,,2013-07-05 09:08:00,
2013-07-05 05:16:00,71.0,71.0,30.22,ESE,115,0.0,0.0,100,0.00,,,0.03,,2013-07-05 09:16:00,
2013-07-05 05:28:00,72.0,72.0,30.22,West,280,0.0,0.0,100,0.01,,,0.04,,2013-07-05 09:28:00,
2013-07-05 05:37:00,71.0,71.0,30.22,NE,45,0.0,0.0,100,0.01,,,0.04,,2013-07-05 09:37:00,
2013-07-05 05:48:00,71.0,71.0,30.22,NE,45,0.0,0.0,100,0.01,,,0.04,,2013-07-05 09:48:00,
2013-07-05 05:57:00,72.0,72.0,30.22,SSE,160,0.0,0.0,100,0.01,,,0.04,,2013-07-05 09:57:00,
2013-07-05 06:08:00,72.0,72.0,30.22,SSE,160,0.0,0.0,100,0.01,,,0.04,,2013-07-05 10:08:00,
2013-07-05 06:19:00,72.0,72.0,30.22,SSE,160,0.0,0.0,100,0.01,,,0.04,,2013-07-05 10:19:00,
2013-07-05 06:27:00,72.0,72.0,30.22,East,100,0.0,0.0,100,0.00,,,0.04,,2013-07-05 10:27:00,
2013-07-05 06:37:00,72.0,72.0,30.25,East,90,0.0,0.0,100,0.00,,,0.04,,2013-07-05 10:37:00,
2013-07-05 06:47:00,72.0,72.0,30.25,East,90,0.0,0.0,100,0.00,,,0.04,,2013-07-05 10:47:00,
2013-07-05 06:58:00,73.0,73.0,30.25,East,90,0.0,0.0,100,0.00,,,0.04,,2013-07-05 10:58:00,
2013-07-05 07:10:00,73.0,73.0,30.25,SE,135,0.0,0.0,100,0.00,,,0.04,,2013-07-05 11:10:00,
2013-07-05 07:18:00,73.0,73.0,30.25,SE,135,0.0,0.0,100,0.00,,,0.04,,2013-07-05 11:18:00,
2013-07-05 07:25:00,75.0,75.0,30.25,SW,230,0.0,0.0,100,0.00,,,0.04,,2013-07-05 11:25:00,
2013-07-05 07:37:00,78.0,76.0,30.25,NNW,340,0.0,1.0,95,0.00,,,0.04,,2013-07-05 11:37:00,
2013-07-05 07:48:00,78.0,76.0,30.25,NNW,340,0.0,1.0,95,0.00,,,0.04,,2013-07-05 11:48:00,
2013-07-05 08:00:00,80.0,72.0,30.25,NW,320,0.0,1.0,76,0.00,,,0.04,,2013-07-05 12:00:00,
2013-07-05 08:10:00,79.0,72.0,30.25,West,265,1.0,6.0,78,0.00,,,0.04,,2013-07-05 12:10:00,
2013-07-05 08:16:00,79.0,72.0,30.25,West,265,1.0,6.0,78,0.00,,,0.04,,2013-07-05 12:16:00,
2013-07-05 08:26:00,78.0,71.0,30.25,SW,235,2.0,3.0,80,0.00,,,0.04,,2013-07-05 12:26:00,
2013-07-05 08:37:00,78.0,71.0,30.25,SW,235,2.0,2.0,80,0.00,,,0.04,,2013-07-05 12:37:00,
2013-07-05 09:00:00,78.0,71.0,30.25,SW,235,2.0,2.0,80,0.00,,,0.04,,2013-07-05 13:00:00,
2013-07-05 09:07:00,78.0,71.0,30.25,SW,235,2.0,2.0,80,0.00,,,0.04,,2013-07-05 13:07:00,
2013-07-05 09:39:00,78.0,71.0,30.25,SW,235,2.0,2.0,80,0.00,,,0.04,,2013-07-05 13:39:00,
2013-07-05 09:48:00,78.0,71.0,30.25,SW,235,2.0,2.0,80,0.00,,,0.04,,2013-07-05 13:48:00,
2013-07-05 09:58:00,78.0,71.0,30.25,SW,235,2.0,2.0,80,0.00,,,0.04,,2013-07-05 13:58:00,
2013-07-05 10:08:00,78.0,71.0,30.25,SW,235,2.0,2.0,80,0.00,,,0.04,,2013-07-05 14:08:00,
2013-07-05 10:16:00,78.0,71.0,30.25,SW,235,2.0,2.0,80,0.00,,,0.04,,2013-07-05 14:16:00,
2013-07-05 10:28:00,78.0,71.0,30.25,SW,235,2.0,2.0,80,0.00,,,0.04,,2013-07-05 14:28:00,
2013-07-05 10:38:00,83.0,73.0,30.25,South,185,2.0,2.0,72,0.00,,,0.04,,2013-07-05 14:38:00,
2013-07-05 10:46:00,83.0,73.0,30.25,South,185,2.0,2.0,72,0.00,,,0.04,,2013-07-05 14:46:00,
2013-07-05 10:58:00,83.0,73.0,30.25,South,185,2.0,2.0,72,0.00,,,0.04,,2013-07-05 14:58:00,
2013-07-05 11:07:00,83.0,73.0,30.25,South,185,2.0,2.0,72,0.00,,,0.04,,2013-07-05 15:07:00,
2013-07-05 11:17:00,83.0,73.0,30.25,South,185,2.0,2.0,72,0.00,,,0.04,,2013-07-05 15:17:00,
2013-07-05 11:25:00,83.0,73.0,30.25,South,185,2.0,2.0,72,0.00,,,0.04,,2013-07-05 15:25:00,
2013-07-05 11:34:00,83.0,73.0,30.25,South,185,2.0,2.0,72,0.00,,,0.04,,2013-07-05 15:34:00,
2013-07-05 11:43:00,83.0,73.0,30.25,South,185,2.0,2.0,72,0.00,,,0.04,,2013-07-05 15:43:00,
2013-07-05 11:53:00,87.0,73.0,30.22,West,265,1.0,5.0,63,0.00,,,0.04,,2013-07-05 15:53:00,
2013-07-05 12:02:00,87.0,73.0,30.22,West,265,1.0,5.0,63,0.00,,,0.04,,2013-07-05 16:02:00,
2013-07-05 12:11:00,87.0,73.0,30.22,West,265,1.0,5.0,63,0.00,,,0.04,,2013-07-05 16:11:00,
2013-07-05 13:02:00,89.0,71.0,30.22,West,280,7.0,9.0,56,0.00,,,0.04,,2013-07-05 17:02:00,
2013-07-05 13:43:00,91.0,74.0,30.22,East,95,6.0,10.0,57,0.00,,,0.04,,2013-07-05 17:43:00,
2013-07-05 13:53:00,90.0,72.0,30.22,South,180,7.0,10.0,56,0.00,,,0.04,,2013-07-05 17:53:00,
2013-07-05 14:02:00,90.0,73.0,30.22,West,265,5.0,6.0,58,0.00,,,0.04,,2013-07-05 18:02:00,
2013-07-05 14:11:00,90.0,73.0,30.22,West,265,5.0,6.0,58,0.00,,,0.04,,2013-07-05 18:11:00,
2013-07-05 14:22:00,88.0,72.0,30.22,ESE,110,7.0,10.0,60,0.00,,,0.04,,2013-07-05 18:22:00,
2013-07-05 14:33:00,88.0,72.0,30.22,SE,140,9.0,10.0,59,0.00,,,0.04,,2013-07-05 18:33:00,
2013-07-05 14:43:00,88.0,72.0,30.22,SE,140,9.0,10.0,59,0.00,,,0.04,,2013-07-05 18:43:00,
2013-07-05 14:53:00,89.0,72.0,30.22,SSW,195,8.0,9.0,58,0.00,,,0.04,,2013-07-05 18:53:00,
2013-07-05 15:02:00,89.0,73.0,30.22,WNW,290,7.0,9.0,59,0.00,,,0.04,,2013-07-05 19:02:00,
2013-07-05 15:12:00,89.0,73.0,30.22,WNW,290,7.0,9.0,59,0.00,,,0.04,,2013-07-05 19:12:00,
2013-07-05 15:34:00,89.0,73.0,30.22,SSE,160,6.0,6.0,60,0.00,,,0.04,,2013-07-05 19:34:00,
2013-07-05 15:43:00,89.0,73.0,30.22,SSE,160,6.0,6.0,60,0.00,,,0.04,,2013-07-05 19:43:00,
2013-07-05 15:53:00,90.0,74.0,30.19,ENE,60,3.0,6.0,59,0.00,,,0.04,,2013-07-05 19:53:00,
2013-07-05 16:02:00,89.0,72.0,30.19,ESE,120,2.0,6.0,58,0.00,,,0.04,,2013-07-05 20:02:00,
2013-07-05 16:11:00,89.0,72.0,30.19,ESE,120,2.0,6.0,58,0.00,,,0.04,,2013-07-05 20:11:00,
2013-07-05 16:33:00,89.0,71.0,30.19,SE,145,7.0,9.0,56,0.00,,,0.04,,2013-07-05 20:33:00,
2013-07-05 16:43:00,89.0,71.0,30.19,SE,145,7.0,9.0,56,0.00,,,0.04,,2013-07-05 20:43:00,
2013-07-05 18:34:00,86.0,69.0,30.16,SE,135,3.0,5.0,58,0.00,,,0.04,,2013-07-05 22:34:00,
2013-07-05 18:53:00,85.0,70.0,30.16,SE,130,3.0,7.0,60,0.00,,,0.04,,2013-07-05 22:53:00,
2013-07-05 19:32:00,83.0,70.0,30.16,SE,135,3.0,5.0,66,0.00,,,0.01,,2013-07-05 23:32:00,
2013-07-05 19:53:00,81.0,69.0,30.16,SE,140,3.0,5.0,68,0.00,,,0.01,,2013-07-05 23:53:00,
2013-07-05 20:02:00,80.0,69.0,30.16,East,80,2.0,2.0,70,0.00,,,0.01,,2013-07-06 00:02:00,
2013-07-05 20:12:00,80.0,69.0,30.16,East,80,2.0,2.0,70,0.00,,,0.01,,2013-07-06 00:12:00,
2013-07-05 20:22:00,79.0,70.0,30.16,South,180,2.0,5.0,73,0.00,,,0.01,,2013-07-06 00:22:00,
2013-07-05 20:33:00,78.0,69.0,30.16,SE,135,3.0,5.0,74,0.00,,,0.01,,2013-07-06 00:33:00,
2013-07-05 20:42:00,78.0,69.0,30.16,SE,135,3.0,5.0,74,0.00,,,0.01,,2013-07-06 00:42:00,
2013-07-05 20:53:00,77.0,71.0,30.16,East,90,2.0,5.0,81,0.00,,,0.01,,2013-07-06 00:53:00,
2013-07-05 21:02:00,76.0,70.0,30.16,SE,135,2.0,2.0,82,0.00,,,0.01,,2013-07-06 01:02:00,
2013-07-05 21:12:00,76.0,70.0,30.16,SE,135,2.0,2.0,82,0.00,,,0.01,,2013-07-06 01:12:00,
2013-07-05 21:22:00,76.0,71.0,30.16,East,90,0.0,0.0,85,0.00,,,0.01,,2013-07-06 01:22:00,
2013-07-05 21:43:00,76.0,72.0,30.16,SE,125,0.0,1.0,87,0.00,,,0.01,,2013-07-06 01:43:00,
2013-07-05 21:53:00,77.0,74.0,30.16,SE,125,0.0,6.0,89,0.00,,,0.01,,2013-07-06 01:53:00,
2013-07-05 22:02:00,77.0,73.0,30.16,SE,145,1.0,6.0,88,0.00,,,0.01,,2013-07-06 02:02:00,
2013-07-05 22:12:00,77.0,73.0,30.16,SE,145,1.0,6.0,88,0.00,,,0.01,,2013-07-06 02:12:00,
2013-07-05 22:34:00,77.0,72.0,30.16,SSE,150,3.0,6.0,85,0.00,,,0.01,,2013-07-06 02:34:00,
2013-07-05 22:43:00,77.0,72.0,30.16,SSE,150,3.0,6.0,85,0.00,,,0.01,,2013-07-06 02:43:00,
2013-07-05 22:53:00,77.0,71.0,30.19,ESE,105,3.0,6.0,83,0.00,,,0.01,,2013-07-06 02:53:00,
2013-07-05 23:02:00,77.0,71.0,30.19,West,275,2.0,2.0,82,0.00,,,0.01,,2013-07-06 03:02:00,
2013-07-05 23:12:00,77.0,71.0,30.19,West,275,2.0,2.0,82,0.00,,,0.01,,2013-07-06 03:12:00,
2013-07-05 23:22:00,77.0,71.0,30.19,East,85,1.0,3.0,82,0.00,,,0.01,,2013-07-06 03:22:00,
2013-07-05 23:34:00,77.0,71.0,30.19,SE,145,1.0,2.0,83,0.00,,,0.01,,2013-07-06 03:34:00,
2013-07-05 23:43:00,77.0,71.0,30.19,SE,145,1.0,2.0,83,0.00,,,0.01,,2013-07-06 03:43:00,
2013-07-05 23:53:00,77.0,72.0,30.16,South,180,2.0,2.0,84,0.00,,,0.01,,2013-07-06 03:53:00,